Change the Weather History Date:

Thursday, January 17, 2013

  Actual Average Record
Temperature  
Mean Temperature 26 °F -  
Max Temperature 33 °F 30 °F 55 °F (1990)
Min Temperature 19 °F 11 °F -18 °F (2009)
Degree Days  
Heating Degree Days 39    
Moisture  
Dew Point 20 °F    
Average Humidity 75    
Maximum Humidity 85    
Minimum Humidity 66    
Precipitation  
Precipitation 0.00 in - - ()
Sea Level Pressure  
Sea Level Pressure 30.07 in    
Wind  
Wind Speed 6 mph (North)    
Max Wind Speed 13 mph    
Max Gust Speed -    
Visibility 8 miles    
Events Snow    
Averages and records for this station are not official NWS values.
T = Trace of Precipitation, MM = Missing Value Source: NWS Daily Summary

Daily Weather History Graph

Daily Weather History Graph

Search for Another Location

Airport or City:

Trip Planner

Search our weather history database for the weather conditions in past years. The results will help you decide how hot, cold, wet, or windy it might be!

Date:

Astronomy

Jan. 17, 2013 Rise Set
Actual Time 7:32 AM EST 5:03 PM EST
Civil Twilight 7:01 AM EST 5:34 PM EST
Nautical Twilight 6:27 AM EST 6:08 PM EST
Astronomical Twilight 5:53 AM EST 6:42 PM EST
Moon 10:30 AM EST (1/17) No Moon Set
Length of Visible Light 10h 32m
Length of Day
9h 31m
Waxing Crescent, 37% of the Moon is Illuminated
Jan 17
Waxing Crescent
Jan 18
First Quarter
Jan 26
Full
Feb 3
Last Quarter
Feb 10
New

Hourly Weather History & Observations

Time (EST) Temp. Windchill Dew Point Humidity Pressure Visibility Wind Dir Wind Speed Gust Speed Precip Events Conditions
12:53 AM 23.0 °F 17.0 °F 19.0 °F 85% 29.92 in 10.0 mi West 4.6 mph - N/A   Overcast
1:53 AM 30.0 °F 24.1 °F 24.1 °F 79% 29.93 in 10.0 mi WSW 5.8 mph - N/A   Overcast
2:53 AM 30.9 °F 24.3 °F 24.1 °F 76% 29.94 in 10.0 mi WSW 6.9 mph - N/A   Overcast
3:53 AM 32.0 °F 28.7 °F 24.1 °F 73% 29.95 in 10.0 mi WSW 3.5 mph - N/A   Overcast
4:53 AM 32.0 °F 25.6 °F 24.1 °F 73% 29.97 in 10.0 mi WSW 6.9 mph - N/A   Overcast
5:53 AM 32.0 °F 24.8 °F 24.1 °F 73% 29.99 in 10.0 mi WSW 8.1 mph - N/A   Overcast
6:53 AM 33.1 °F 25.5 °F 25.0 °F 72% 30.01 in 10.0 mi WSW 9.2 mph - N/A   Overcast
7:04 AM 33.8 °F 28.6 °F 24.8 °F 70% 29.97 in 10.0 mi West 5.8 mph - N/A   Overcast
7:53 AM 33.1 °F 26.1 °F 26.1 °F 75% 30.04 in 10.0 mi WSW 8.1 mph - 0.00 in   Overcast
8:22 AM 33.8 °F 28.6 °F 26.6 °F 75% 30.01 in 10.0 mi WSW 5.8 mph - N/A   Overcast
8:53 AM 33.1 °F 27.7 °F 27.0 °F 78% 30.06 in 10.0 mi SSW 5.8 mph - N/A   Overcast
9:13 AM 33.8 °F 29.6 °F 26.6 °F 75% 30.03 in 10.0 mi SW 4.6 mph - N/A   Overcast
9:31 AM 33.8 °F 28.6 °F 26.6 °F 75% 30.04 in 8.0 mi SW 5.8 mph - 0.00 in Snow Light Snow
9:53 AM 33.1 °F 30.0 °F 27.0 °F 78% 30.10 in 7.0 mi West 3.5 mph - 0.00 in Snow Light Snow
10:38 AM 30.2 °F 21.3 °F 24.8 °F 80% 30.09 in 5.0 mi NNE 10.4 mph - 0.00 in Snow Light Snow
10:53 AM 30.0 °F 21.7 °F 24.1 °F 79% 30.12 in 7.0 mi NNE 9.2 mph - 0.00 in Snow Light Snow
11:53 AM 28.9 °F 18.6 °F 21.9 °F 75% 30.12 in 7.0 mi NNE 12.7 mph - 0.00 in Snow Light Snow
12:44 PM 26.6 °F 15.7 °F 19.4 °F 74% 30.08 in 9.0 mi NNE 12.7 mph - 0.00 in   Overcast
12:53 PM 26.1 °F 15.6 °F 19.0 °F 75% 30.12 in 9.0 mi NNE 11.5 mph - 0.00 in   Overcast
1:53 PM 26.1 °F 16.2 °F 16.0 °F 66% 30.11 in 10.0 mi NE 10.4 mph - N/A   Overcast
2:17 PM 24.8 °F 16.1 °F 17.6 °F 74% 30.08 in 10.0 mi NE 8.1 mph - N/A   Overcast
2:30 PM 24.8 °F 16.9 °F 15.8 °F 69% 30.08 in 10.0 mi NNE 6.9 mph - N/A   Overcast
2:53 PM 25.0 °F 16.3 °F 16.0 °F 69% 30.12 in 10.0 mi NNE 8.1 mph - N/A   Overcast
3:53 PM 25.0 °F 17.1 °F 15.1 °F 66% 30.12 in 8.0 mi NNE 6.9 mph - 0.00 in Snow Light Snow
4:26 PM 24.8 °F 17.9 °F 15.8 °F 69% 30.09 in 9.0 mi NNE 5.8 mph - 0.00 in Snow Light Snow
4:53 PM 24.1 °F 17.0 °F 16.0 °F 71% 30.13 in 3.0 mi NNE 5.8 mph - 0.00 in Snow Light Snow
5:53 PM 23.0 °F 18.4 °F 17.1 °F 78% 30.15 in 4.0 mi NE 3.5 mph - 0.00 in Snow Light Snow
6:19 PM 23.0 °F 17.0 °F 17.6 °F 80% 30.11 in 2.0 mi NE 4.6 mph - 0.00 in Snow Light Snow
6:38 PM 23.0 °F 18.4 °F 17.6 °F 80% 30.12 in 3.0 mi NE 3.5 mph - 0.00 in Snow Light Snow
6:46 PM 23.0 °F 17.0 °F 17.6 °F 80% 30.12 in 2.5 mi NE 4.6 mph - 0.00 in Snow Light Snow
6:53 PM 23.0 °F 15.8 °F 18.0 °F 81% 30.15 in 3.0 mi NE 5.8 mph - 0.00 in Snow Light Snow
7:53 PM 21.9 °F 15.7 °F 16.0 °F 78% 30.15 in 4.0 mi NNE 4.6 mph - 0.00 in Snow Light Snow
8:53 PM 21.9 °F - 16.0 °F 78% 30.15 in 4.0 mi Calm Calm - 0.00 in Snow Light Snow
9:53 PM 21.0 °F 14.6 °F 15.1 °F 78% 30.12 in 7.0 mi NE 4.6 mph - 0.00 in Snow Light Snow
10:53 PM 19.9 °F 14.9 °F 14.0 °F 78% 30.11 in 10.0 mi NNE 3.5 mph - 0.00 in   Overcast
11:41 PM 19.4 °F 11.5 °F 14.0 °F 80% 30.08 in 9.0 mi NNE 5.8 mph - 0.00 in Snow Light Snow
11:53 PM 19.9 °F 12.1 °F 14.0 °F 78% 30.12 in 8.0 mi NNE 5.8 mph - 0.00 in Snow Light Snow